BTK6164 WAAA-WAPP

Flight info

Callsign BTK6164
Flight time N/A
Altitude 37000
Route SUGTA W53 HOLBA
Aircraft A320/M-SDE3FGHIRWY/LB1

Departure

Time 2026-04-30 14:11
Airport Sultan Hasanuddin International Airport (WAAA)

Arrival

Time N/A
Airport Pattimura International Airport (WAPP)
Time Latitude Longitude Altitude Speed Heading
2026-04-30 13:39 -5.08000 119.54603 41 ft 0 kts 300°
2026-04-30 14:03 -5.08008 119.54617 41 ft 3 kts 301°
2026-04-30 14:03 -5.08020 119.54635 41 ft 3 kts 305°
2026-04-30 14:04 -5.08032 119.54652 41 ft 3 kts 313°
2026-04-30 14:04 -5.08048 119.54666 38 ft 3 kts 335°
2026-04-30 14:04 -5.08064 119.54670 37 ft 2 kts 29°
2026-04-30 14:04 -5.08065 119.54669 37 ft 0 kts 29°
2026-04-30 14:06 -5.08043 119.54682 39 ft 6 kts 29°
2026-04-30 14:07 -5.08021 119.54763 41 ft 11 kts 118°
2026-04-30 14:07 -5.08072 119.54838 41 ft 15 kts 147°
2026-04-30 14:07 -5.08177 119.54806 41 ft 19 kts 209°
2026-04-30 14:08 -5.08432 119.54660 41 ft 23 kts 210°
2026-04-30 14:08 -5.08572 119.54578 41 ft 24 kts 210°
2026-04-30 14:08 -5.08873 119.54406 41 ft 26 kts 210°
2026-04-30 14:09 -5.09003 119.54331 41 ft 21 kts 210°
2026-04-30 14:09 -5.09122 119.54275 41 ft 13 kts 177°
2026-04-30 14:09 -5.09220 119.54388 42 ft 10 kts 120°
2026-04-30 14:10 -5.09209 119.54416 40 ft 0 kts 32°
2026-04-30 14:10 -5.09139 119.54457 43 ft 43 kts 28°
2026-04-30 14:10 -5.08673 119.54729 43 ft 110 kts 30°
2026-04-30 14:11 -5.07849 119.55202 43 ft 160 kts 30°
2026-04-30 14:11 -5.06809 119.55799 420 ft 174 kts 31°
2026-04-30 14:11 -5.05726 119.56267 1038 ft 177 kts
2026-04-30 14:11 -5.04422 119.56230 1317 ft 199 kts 356°
2026-04-30 14:12 -5.02966 119.56112 1562 ft 219 kts 356°
2026-04-30 14:12 -5.01368 119.56009 1886 ft 242 kts 357°
2026-04-30 14:12 -4.99615 119.55935 2373 ft 260 kts 358°
2026-04-30 14:12 -4.98382 119.55905 2877 ft 264 kts 359°
2026-04-30 14:13 -4.95918 119.55864 3951 ft 270 kts 355°
2026-04-30 14:13 -4.94050 119.55529 4750 ft 275 kts 349°
2026-04-30 14:13 -4.92166 119.55152 5546 ft 278 kts 349°
2026-04-30 14:13 -4.90253 119.54777 6344 ft 282 kts 349°
2026-04-30 14:14 -4.88310 119.54401 7095 ft 285 kts 349°
2026-04-30 14:14 -4.86351 119.54026 7838 ft 289 kts 352°
2026-04-30 14:14 -4.84350 119.54096 8544 ft 291 kts 18°
2026-04-30 14:14 -4.82587 119.55061 9239 ft 292 kts 44°
2026-04-30 14:15 -4.81441 119.56726 9954 ft 293 kts 71°
2026-04-30 14:15 -4.80994 119.58743 10370 ft 307 kts 82°
2026-04-30 14:15 -4.80660 119.60905 10525 ft 329 kts 82°
2026-04-30 14:15 -4.80318 119.63241 10777 ft 346 kts 82°
2026-04-30 14:16 -4.79966 119.65654 11326 ft 352 kts 82°
2026-04-30 14:16 -4.79602 119.68100 11948 ft 355 kts 82°
2026-04-30 14:16 -4.79231 119.70556 12577 ft 358 kts 82°
2026-04-30 14:16 -4.78962 119.73046 13178 ft 360 kts 90°
2026-04-30 14:17 -4.79199 119.75552 13782 ft 363 kts 102°
2026-04-30 14:17 -4.79990 119.77954 14302 ft 366 kts 115°
2026-04-30 14:17 -4.81266 119.80172 14819 ft 369 kts 122°
2026-04-30 14:17 -4.82635 119.82360 15346 ft 372 kts 121°
2026-04-30 14:18 -4.83991 119.84540 15865 ft 374 kts 121°
2026-04-30 14:18 -4.85367 119.86763 16387 ft 377 kts 121°
2026-04-30 14:18 -4.88155 119.91280 17394 ft 383 kts 121°
2026-04-30 14:19 -4.90432 119.96114 18331 ft 388 kts 103°
2026-04-30 14:19 -4.90824 119.98786 18751 ft 390 kts 92°
2026-04-30 14:19 -4.90658 120.01506 19152 ft 392 kts 82°
2026-04-30 14:20 -4.90275 120.04226 19559 ft 395 kts 82°
2026-04-30 14:20 -4.89891 120.06956 19959 ft 397 kts 82°
2026-04-30 14:20 -4.89122 120.12471 20747 ft 402 kts 83°
2026-04-30 14:21 -4.88743 120.15257 21129 ft 404 kts 83°
2026-04-30 14:21 -4.88364 120.18054 21498 ft 407 kts 83°
2026-04-30 14:21 -4.87598 120.23703 22240 ft 411 kts 83°
2026-04-30 14:22 -4.87215 120.26515 22600 ft 414 kts 83°
2026-04-30 14:22 -4.86507 120.32270 23294 ft 418 kts 84°
2026-04-30 14:22 -4.86177 120.35177 23623 ft 420 kts 84°
2026-04-30 14:23 -4.85518 120.41036 24189 ft 424 kts 84°
2026-04-30 14:23 -4.84839 120.46943 24743 ft 429 kts 84°
2026-04-30 14:24 -4.84143 120.52900 25287 ft 433 kts 84°
2026-04-30 14:24 -4.83789 120.55906 25564 ft 435 kts 84°
2026-04-30 14:25 -4.83082 120.61952 26078 ft 439 kts 84°
2026-04-30 14:25 -4.82363 120.68051 26598 ft 442 kts 83°
2026-04-30 14:26 -4.81637 120.74205 27120 ft 447 kts 83°
2026-04-30 14:26 -4.81270 120.77307 27375 ft 448 kts 83°
2026-04-30 14:26 -4.80534 120.83543 27873 ft 452 kts 83°
2026-04-30 14:27 -4.80167 120.86676 28115 ft 454 kts 83°
2026-04-30 14:27 -4.79776 120.89827 28357 ft 456 kts 83°
2026-04-30 14:27 -4.79353 120.92977 28593 ft 457 kts 82°
2026-04-30 14:28 -4.78453 120.99320 29051 ft 461 kts 82°
2026-04-30 14:28 -4.78001 121.02501 29276 ft 462 kts 82°
2026-04-30 14:28 -4.77552 121.05701 29493 ft 464 kts 82°
2026-04-30 14:28 -4.77113 121.08870 29715 ft 466 kts 82°
2026-04-30 14:29 -4.76237 121.15317 30210 ft 467 kts 82°
2026-04-30 14:29 -4.75504 121.20712 30683 ft 465 kts 82°
2026-04-30 14:30 -4.74031 121.31356 31630 ft 462 kts 82°
2026-04-30 14:31 -4.73149 121.37731 32198 ft 460 kts 82°
2026-04-30 14:31 -4.72276 121.44081 32776 ft 459 kts 82°
2026-04-30 14:31 -4.71838 121.47258 33074 ft 458 kts 82°
2026-04-30 14:32 -4.70969 121.53570 33705 ft 456 kts 82°
2026-04-30 14:32 -4.70542 121.56674 34014 ft 455 kts 82°
2026-04-30 14:32 -4.70111 121.59813 34277 ft 454 kts 82°
2026-04-30 14:33 -4.69681 121.62941 34515 ft 453 kts 82°
2026-04-30 14:33 -4.68816 121.69199 34978 ft 453 kts 82°
2026-04-30 14:33 -4.68382 121.72332 35195 ft 453 kts 82°
2026-04-30 14:34 -4.67945 121.75463 35419 ft 453 kts 81°
2026-04-30 14:34 -4.67507 121.78590 35644 ft 452 kts 81°
2026-04-30 14:34 -4.67072 121.81706 35867 ft 452 kts 81°
2026-04-30 14:34 -4.66640 121.84828 36079 ft 451 kts 81°
2026-04-30 14:35 -4.65928 121.90001 36438 ft 451 kts 81°
2026-04-30 14:35 -4.65351 121.94164 36697 ft 451 kts 81°
2026-04-30 14:35 -4.64920 121.97280 36868 ft 451 kts 81°
2026-04-30 14:36 -4.64489 122.00402 36940 ft 452 kts 81°
2026-04-30 14:36 -4.63551 122.06644 36947 ft 453 kts 80°
2026-04-30 14:37 -4.62537 122.12888 36944 ft 453 kts 80°
2026-04-30 14:37 -4.61531 122.19086 36946 ft 454 kts 80°
2026-04-30 14:38 -4.60542 122.25331 36940 ft 454 kts 81°
2026-04-30 14:38 -4.59723 122.30571 36942 ft 454 kts 81°
2026-04-30 14:39 -4.58740 122.36825 36943 ft 454 kts 80°
2026-04-30 14:39 -4.57750 122.43044 36937 ft 455 kts 80°
2026-04-30 14:40 -4.56258 122.52443 36945 ft 456 kts 80°
2026-04-30 14:40 -4.55269 122.58726 36952 ft 456 kts 80°
2026-04-30 14:41 -4.54274 122.65007 36958 ft 457 kts 80°
2026-04-30 14:41 -4.53272 122.71291 36959 ft 457 kts 80°
2026-04-30 14:42 -4.52275 122.77576 36966 ft 457 kts 80°
2026-04-30 14:42 -4.51275 122.83857 36963 ft 456 kts 80°
2026-04-30 14:43 -4.50274 122.90140 36961 ft 456 kts 80°
2026-04-30 14:43 -4.49281 122.96415 36961 ft 456 kts 80°
2026-04-30 14:44 -4.48287 123.02690 36962 ft 456 kts 80°
2026-04-30 14:44 -4.47294 123.08925 36960 ft 456 kts 80°
2026-04-30 14:45 -4.46293 123.15194 36956 ft 456 kts 80°
2026-04-30 14:45 -4.45289 123.21468 36959 ft 456 kts 80°
2026-04-30 14:46 -4.44290 123.27737 36959 ft 456 kts 80°
2026-04-30 14:46 -4.43294 123.34006 36957 ft 455 kts 80°
2026-04-30 14:47 -4.42292 123.40275 36956 ft 455 kts 80°
2026-04-30 14:47 -4.41298 123.46534 36953 ft 455 kts 80°
2026-04-30 14:48 -4.40318 123.52758 36951 ft 455 kts 80°
2026-04-30 14:48 -4.39344 123.59018 36949 ft 455 kts 80°
2026-04-30 14:49 -4.38367 123.65276 36954 ft 454 kts 80°
2026-04-30 14:49 -4.37379 123.71527 36947 ft 454 kts 80°
2026-04-30 14:50 -4.35911 123.80900 36948 ft 454 kts 80°
2026-04-30 14:51 -4.34440 123.90272 36947 ft 454 kts 80°
2026-04-30 14:52 -4.32965 123.99642 36949 ft 454 kts 80°
2026-04-30 14:52 -4.31478 124.09011 36946 ft 454 kts 80°
2026-04-30 14:53 -4.29998 124.18384 36947 ft 454 kts 81°
2026-04-30 14:54 -4.28043 124.30850 36950 ft 454 kts 81°
2026-04-30 14:55 -4.26558 124.40220 36947 ft 454 kts 81°
2026-04-30 14:56 -4.24595 124.52707 36949 ft 454 kts 81°
2026-04-30 14:57 -4.23103 124.62066 36953 ft 453 kts 81°
2026-04-30 14:58 -4.21126 124.74538 36951 ft 453 kts 81°
2026-04-30 14:58 -4.19643 124.83878 36954 ft 452 kts 81°
2026-04-30 15:00 -4.17178 124.99412 36954 ft 451 kts 81°
2026-04-30 15:01 -4.15207 125.11775 36958 ft 450 kts 81°
2026-04-30 15:01 -4.13734 125.21059 36958 ft 449 kts 81°
2026-04-30 15:02 -4.12750 125.27231 36953 ft 448 kts 81°
2026-04-30 15:03 -4.10301 125.42627 36950 ft 447 kts 80°
2026-04-30 15:04 -4.07856 125.57951 36951 ft 447 kts 81°
2026-04-30 15:06 -4.05397 125.73305 36948 ft 446 kts 81°
2026-04-30 15:07 -4.03409 125.85584 36935 ft 446 kts 81°
2026-04-30 15:08 -4.01460 125.97861 36949 ft 446 kts 81°
2026-04-30 15:09 -3.99001 126.13195 36944 ft 446 kts 81°
2026-04-30 15:10 -3.97033 126.25451 36938 ft 446 kts 81°
2026-04-30 15:11 -3.94078 126.43810 36945 ft 446 kts 80°
2026-04-30 15:13 -3.91207 126.59064 36959 ft 446 kts 79°
2026-04-30 15:14 -3.87257 126.80444 36964 ft 445 kts 80°
2026-04-30 15:16 -3.84369 126.95942 33808 ft 468 kts 80°
2026-04-30 15:17 -3.81960 127.08889 30239 ft 476 kts 80°
2026-04-30 15:18 -3.78975 127.24988 26413 ft 460 kts 80°
2026-04-30 15:19 -3.77246 127.34296 24507 ft 447 kts 81°